Weather History for Greenville/Spartanburg, SC

Change the Weather History Date:

Sunday, August 4, 2013

  Actual Average Record
Temperature  
Mean Temperature 80 °F 80 °F  
Max Temperature 89 °F 90 °F 99 °F (2006)
Min Temperature 70 °F 70 °F 57 °F (1985)
Degree Days  
Heating Degree Days 0 0  
Month to date heating degree days 0 0  
Since 1 June heating degree days 0 2  
Since 1 July heating degree days 0 0  
Cooling Degree Days 15 15  
Month to date cooling degree days 58 60  
Year to date cooling degree days 956 1072  
Since 1 June cooling degree days 794 871  
Growing Degree Days 30 (Base 50)    
Moisture  
Dew Point 66 °F    
Average Humidity 70    
Maximum Humidity 93    
Minimum Humidity 46    
Precipitation  
Precipitation 0.00 in 0.16 in 2.30 in (1945)
Month to date precipitation 0.04 0.62  
Year to date precipitation 47.08 28.65  
Snow  
Snow 0.00 in 0.00 in 0.00 in ()
Month to date snowfall 0.0 0.0  
Since 1 June snowfall 0.0 0.0  
Since 1 July snowfall 0.0 0.0  
Snow Depth 0.00 in    
Sea Level Pressure  
Sea Level Pressure 29.96 in    
Wind  
Wind Speed 4 mph (North)    
Max Wind Speed 13 mph    
Max Gust Speed 17 mph    
Visibility 10 miles    
Events      
T = Trace of Precipitation, MM = Missing Value Source: NWS Daily Summary

Daily Weather History Graph

Daily Weather History Graph

Search for Another Location

Airport:

Trip Planner

Search our weather history database for the weather conditions in past years. The results will help you decide how hot, cold, wet, or windy it might be!

Date:

Astronomy

Aug. 04, 2013 Rise Set
Actual Time 6:40 AM EDT 8:28 PM EDT
Civil Twilight 6:13 AM EDT 8:55 PM EDT
Nautical Twilight 5:40 AM EDT 9:29 PM EDT
Astronomical Twilight 5:04 AM EDT 10:04 PM EDT
Moon 4:41 AM EDT (8/4) 6:50 PM EDT (8/4)
Length of Visible Light 14h 42m
Length of Day
13h 47m
Waning Crescent, 5% of the Moon is Illuminated
Aug 4
Waning Crescent
Aug 6
New
Aug 14
First Quarter
Aug 20
Full
Aug 28
Last Quarter

Hourly Weather History & Observations

Time (EDT) Temp. Heat Index Dew Point Humidity Pressure Visibility Wind Dir Wind Speed Gust Speed Precip Events Conditions
12:53 AM 73.9 °F - 72.0 °F 93% 29.96 in 9.0 mi West 3.5 mph - N/A   Clear
1:53 AM 73.9 °F - 70.0 °F 87% 29.94 in 10.0 mi Calm Calm - N/A   Clear
2:53 AM 73.0 °F - 68.0 °F 84% 29.94 in 9.0 mi Calm Calm - N/A   Clear
3:53 AM 71.1 °F - 68.0 °F 90% 29.93 in 10.0 mi Calm Calm - N/A   Clear
4:53 AM 71.1 °F - 68.0 °F 90% 29.93 in 10.0 mi WSW 3.5 mph - N/A   Mostly Cloudy
5:53 AM 71.1 °F - 66.9 °F 87% 29.94 in 10.0 mi South 3.5 mph - N/A   Scattered Clouds
6:53 AM 73.0 °F - 66.9 °F 81% 29.95 in 10.0 mi NNE 5.8 mph - N/A   Overcast
7:53 AM 73.9 °F - 70.0 °F 87% 29.95 in 10.0 mi Calm Calm - N/A   Clear
8:53 AM 77.0 °F - 69.1 °F 76% 29.96 in 10.0 mi Calm Calm - N/A   Clear
9:53 AM 82.9 °F 86.5 °F 69.1 °F 63% 29.96 in 10.0 mi NNW 3.5 mph - N/A   Clear
10:53 AM 84.0 °F 87.0 °F 68.0 °F 58% 29.96 in 10.0 mi NW 5.8 mph - N/A   Clear
11:53 AM 86.0 °F 89.4 °F 68.0 °F 55% 29.97 in 10.0 mi Variable 4.6 mph - N/A   Clear
12:53 PM 88.0 °F 90.7 °F 66.9 °F 49% 29.96 in 10.0 mi NNE 5.8 mph - N/A   Clear
1:53 PM 88.0 °F 90.7 °F 66.9 °F 49% 29.96 in 10.0 mi North 5.8 mph - N/A   Partly Cloudy
2:53 PM 88.0 °F 90.3 °F 66.0 °F 48% 29.95 in 10.0 mi Variable 5.8 mph - N/A   Partly Cloudy
3:53 PM 87.1 °F 88.9 °F 64.9 °F 48% 29.94 in 10.0 mi NNE 9.2 mph - N/A   Mostly Cloudy
4:53 PM 87.1 °F 88.9 °F 64.9 °F 48% 29.94 in 10.0 mi North 9.2 mph - N/A   Partly Cloudy
5:53 PM 86.0 °F 87.3 °F 64.0 °F 48% 29.94 in 10.0 mi North 9.2 mph - N/A   Scattered Clouds
6:53 PM 82.9 °F 84.4 °F 64.0 °F 53% 29.95 in 10.0 mi NNE 4.6 mph - N/A   Mostly Cloudy
7:53 PM 80.1 °F 82.1 °F 66.0 °F 62% 29.96 in 10.0 mi NNE 5.8 mph - N/A   Partly Cloudy
8:53 PM 78.1 °F - 59.0 °F 52% 29.97 in 10.0 mi NE 3.5 mph - N/A   Clear
9:53 PM 75.9 °F - 61.0 °F 60% 29.99 in 10.0 mi North 3.5 mph - N/A   Partly Cloudy
10:53 PM 75.9 °F - 60.1 °F 58% 30.00 in 10.0 mi NNE 4.6 mph - N/A   Mostly Cloudy
11:53 PM 73.9 °F - 61.0 °F 64% 30.01 in 10.0 mi NNE 3.5 mph - N/A   Scattered Clouds